TGL11DW LIEE-LFKC

Flight info

Callsign TGL11DW
Flight time 0h 48m
Altitude 36000
Route KOVAS DCT UPDUT DCT AJO DCT ETAGI DCT LIBLO
Aircraft A320/M-SDE3FGHIRWY/LB1

Departure

Time 2026-04-26 13:01
Airport Cagliari Elmas Airport (LIEE)

Arrival

Time 2026-04-26 13:49
Airport Calvi Sainte Catherine Airport (LFKC)
Time Latitude Longitude Altitude Speed Heading
2026-04-26 12:43 39.25261 9.05986 18 ft 0 kts 328°
2026-04-26 12:49 39.25245 9.05999 18 ft 3 kts 324°
2026-04-26 12:50 39.25228 9.06018 18 ft 3 kts 299°
2026-04-26 12:50 39.25223 9.06035 18 ft 3 kts 270°
2026-04-26 12:50 39.25228 9.06061 20 ft 2 kts 233°
2026-04-26 12:50 39.25232 9.06067 19 ft 0 kts 233°
2026-04-26 12:54 39.25230 9.06061 20 ft 1 kts 248°
2026-04-26 12:54 39.25224 9.06039 18 ft 4 kts 252°
2026-04-26 12:54 39.25212 9.05987 20 ft 8 kts 252°
2026-04-26 12:55 39.25184 9.05912 18 ft 11 kts 244°
2026-04-26 12:55 39.25144 9.05814 19 ft 14 kts 240°
2026-04-26 12:55 39.25147 9.05704 19 ft 14 kts 312°
2026-04-26 12:55 39.25225 9.05619 19 ft 16 kts 320°
2026-04-26 12:56 39.25307 9.05527 19 ft 15 kts 316°
2026-04-26 12:56 39.25381 9.05436 19 ft 14 kts 316°
2026-04-26 12:56 39.25452 9.05353 19 ft 13 kts 317°
2026-04-26 12:56 39.25517 9.05276 19 ft 12 kts 318°
2026-04-26 12:57 39.25576 9.05210 20 ft 11 kts 319°
2026-04-26 12:57 39.25628 9.05149 20 ft 10 kts 317°
2026-04-26 12:57 39.25675 9.05095 20 ft 8 kts 318°
2026-04-26 12:58 39.25803 9.04946 20 ft 23 kts 318°
2026-04-26 12:58 39.25947 9.04779 20 ft 31 kts 317°
2026-04-26 12:58 39.26105 9.04592 21 ft 16 kts 312°
2026-04-26 12:58 39.26115 9.04568 21 ft 10 kts 294°
2026-04-26 12:59 39.26126 9.04506 21 ft 0 kts 271°
2026-04-26 13:00 39.26122 9.04442 21 ft 14 kts 253°
2026-04-26 13:00 39.26045 9.04396 21 ft 14 kts 162°
2026-04-26 13:00 39.25964 9.04479 19 ft 18 kts 139°
2026-04-26 13:01 39.25695 9.04785 21 ft 96 kts 138°
2026-04-26 13:01 39.24993 9.05598 93 ft 164 kts 138°
2026-04-26 13:01 39.24145 9.06617 993 ft 169 kts 139°
2026-04-26 13:01 39.23252 9.07645 1927 ft 176 kts 139°
2026-04-26 13:02 39.22306 9.08730 2514 ft 191 kts 139°
2026-04-26 13:02 39.21250 9.09944 2893 ft 216 kts 137°
2026-04-26 13:02 39.20087 9.11283 3562 ft 229 kts 137°
2026-04-26 13:02 39.18814 9.12538 4410 ft 235 kts 156°
2026-04-26 13:03 39.17200 9.12733 5250 ft 240 kts 196°
2026-04-26 13:03 39.15774 9.11641 6113 ft 242 kts 224°
2026-04-26 13:03 39.14659 9.10024 7008 ft 243 kts 233°
2026-04-26 13:03 39.13841 9.08128 7822 ft 245 kts 257°
2026-04-26 13:04 39.13764 9.05938 8671 ft 247 kts 279°
2026-04-26 13:04 39.14336 9.03795 9210 ft 266 kts 302°
2026-04-26 13:04 39.15648 9.02005 9753 ft 283 kts 318°
2026-04-26 13:04 39.17136 9.00312 10516 ft 289 kts 318°
2026-04-26 13:05 39.18646 8.98571 11317 ft 293 kts 317°
2026-04-26 13:05 39.20161 8.96809 12154 ft 294 kts 317°
2026-04-26 13:05 39.21692 8.95059 12983 ft 297 kts 322°
2026-04-26 13:05 39.23489 8.93689 13730 ft 303 kts 337°
2026-04-26 13:06 39.25599 8.92939 14098 ft 323 kts 353°
2026-04-26 13:06 39.27918 8.92752 14354 ft 341 kts 357°
2026-04-26 13:06 39.30310 8.92601 14933 ft 347 kts 357°
2026-04-26 13:06 39.32738 8.92444 15571 ft 351 kts 357°
2026-04-26 13:07 39.35190 8.92278 16246 ft 355 kts 357°
2026-04-26 13:07 39.37661 8.92104 16969 ft 357 kts 357°
2026-04-26 13:07 39.40150 8.91936 17688 ft 359 kts 360°
2026-04-26 13:07 39.42644 8.92206 18333 ft 361 kts 12°
2026-04-26 13:08 39.45048 8.93175 18923 ft 363 kts 25°
2026-04-26 13:08 39.47288 8.94707 19476 ft 367 kts 30°
2026-04-26 13:08 39.49533 8.96322 20029 ft 370 kts 30°
2026-04-26 13:08 39.51798 8.97944 20596 ft 373 kts 29°
2026-04-26 13:09 39.54077 8.99570 21165 ft 376 kts 29°
2026-04-26 13:09 39.56381 9.01211 21730 ft 379 kts 29°
2026-04-26 13:09 39.58704 9.02866 22282 ft 382 kts 29°
2026-04-26 13:09 39.61046 9.04531 22803 ft 385 kts 28°
2026-04-26 13:10 39.63533 9.05845 23339 ft 389 kts 17°
2026-04-26 13:10 39.66197 9.06509 23834 ft 393 kts
2026-04-26 13:10 39.68936 9.06475 24263 ft 396 kts 355°
2026-04-26 13:10 39.71690 9.06086 24703 ft 399 kts 354°
2026-04-26 13:11 39.74452 9.05706 25143 ft 401 kts 355°
2026-04-26 13:11 39.77230 9.05330 25588 ft 403 kts 355°
2026-04-26 13:11 39.80027 9.04955 26027 ft 405 kts 355°
2026-04-26 13:11 39.82834 9.04578 26446 ft 407 kts 354°
2026-04-26 13:12 39.85655 9.04194 26880 ft 409 kts 354°
2026-04-26 13:12 39.88494 9.03806 27303 ft 411 kts 354°
2026-04-26 13:12 39.91348 9.03417 27698 ft 413 kts 354°
2026-04-26 13:12 39.94213 9.03026 28108 ft 415 kts 354°
2026-04-26 13:13 39.97131 9.02625 28521 ft 417 kts 354°
2026-04-26 13:13 40.00029 9.02228 28907 ft 420 kts 354°
2026-04-26 13:13 40.02945 9.01830 29295 ft 422 kts 354°
2026-04-26 13:13 40.05872 9.01429 29672 ft 424 kts 354°
2026-04-26 13:14 40.08818 9.01028 30035 ft 427 kts 354°
2026-04-26 13:14 40.11780 9.00627 30367 ft 429 kts 353°
2026-04-26 13:14 40.14761 9.00223 30677 ft 432 kts 353°
2026-04-26 13:14 40.17759 8.99813 30963 ft 434 kts 353°
2026-04-26 13:15 40.20771 8.99398 31259 ft 436 kts 353°
2026-04-26 13:15 40.23792 8.98980 31544 ft 438 kts 353°
2026-04-26 13:15 40.26828 8.98556 31917 ft 438 kts 353°
2026-04-26 13:15 40.28872 8.98272 32202 ft 437 kts 353°
2026-04-26 13:16 40.32865 8.97720 32732 ft 435 kts 353°
2026-04-26 13:16 40.35919 8.97298 33138 ft 434 kts 353°
2026-04-26 13:16 40.38916 8.96883 33549 ft 433 kts 353°
2026-04-26 13:16 40.41913 8.96472 33970 ft 432 kts 353°
2026-04-26 13:17 40.47885 8.95648 34670 ft 431 kts 353°
2026-04-26 13:17 40.50863 8.95234 34977 ft 430 kts 353°
2026-04-26 13:18 40.56813 8.94409 35572 ft 430 kts 353°
2026-04-26 13:18 40.59784 8.93996 35860 ft 429 kts 352°
2026-04-26 13:18 40.65728 8.93162 36151 ft 429 kts 352°
2026-04-26 13:19 40.68691 8.92741 36150 ft 428 kts 352°
2026-04-26 13:19 40.74606 8.91909 36154 ft 427 kts 352°
2026-04-26 13:19 40.77564 8.91503 35979 ft 428 kts 352°
2026-04-26 13:20 40.80521 8.91097 35730 ft 427 kts 352°
2026-04-26 13:20 40.83467 8.90687 35481 ft 425 kts 352°
2026-04-26 13:20 40.86403 8.90274 35235 ft 423 kts 352°
2026-04-26 13:20 40.89326 8.89861 34989 ft 421 kts 352°
2026-04-26 13:21 40.92235 8.89453 34751 ft 419 kts 352°
2026-04-26 13:21 40.94189 8.89180 34589 ft 418 kts 352°
2026-04-26 13:21 40.98010 8.88644 34273 ft 415 kts 352°
2026-04-26 13:21 41.00874 8.88240 34024 ft 414 kts 352°
2026-04-26 13:22 41.03733 8.87834 33752 ft 412 kts 352°
2026-04-26 13:22 41.05655 8.87559 33568 ft 411 kts 352°
2026-04-26 13:22 41.08493 8.87157 33303 ft 409 kts 352°
2026-04-26 13:22 41.11317 8.86760 33032 ft 408 kts 352°
2026-04-26 13:23 41.14134 8.86361 32765 ft 406 kts 352°
2026-04-26 13:23 41.16935 8.85967 32503 ft 404 kts 352°
2026-04-26 13:23 41.19721 8.85572 32247 ft 403 kts 352°
2026-04-26 13:23 41.22507 8.85177 31992 ft 401 kts 352°
2026-04-26 13:24 41.25278 8.84784 31733 ft 399 kts 352°
2026-04-26 13:24 41.28030 8.84395 31496 ft 397 kts 352°
2026-04-26 13:24 41.30780 8.84010 31239 ft 396 kts 353°
2026-04-26 13:24 41.33507 8.83631 30989 ft 394 kts 353°
2026-04-26 13:25 41.36230 8.83249 30748 ft 393 kts 352°
2026-04-26 13:25 41.38940 8.82867 30503 ft 391 kts 353°
2026-04-26 13:25 41.41643 8.82486 30263 ft 390 kts 352°
2026-04-26 13:25 41.44336 8.82105 29988 ft 388 kts 353°
2026-04-26 13:26 41.47010 8.81725 29708 ft 386 kts 353°
2026-04-26 13:26 41.49673 8.81353 29425 ft 384 kts 353°
2026-04-26 13:26 41.52318 8.80984 29146 ft 382 kts 353°
2026-04-26 13:26 41.54992 8.80607 28868 ft 380 kts 353°
2026-04-26 13:27 41.57620 8.80233 28595 ft 379 kts 353°
2026-04-26 13:27 41.60234 8.79860 28324 ft 377 kts 353°
2026-04-26 13:27 41.62836 8.79488 28062 ft 376 kts 353°
2026-04-26 13:27 41.65431 8.79117 27800 ft 374 kts 353°
2026-04-26 13:28 41.68015 8.78752 27538 ft 372 kts 353°
2026-04-26 13:28 41.70582 8.78389 27278 ft 370 kts 353°
2026-04-26 13:28 41.73136 8.78026 27021 ft 369 kts 353°
2026-04-26 13:28 41.75680 8.77664 26766 ft 367 kts 353°
2026-04-26 13:29 41.78231 8.77592 26514 ft 367 kts
2026-04-26 13:29 41.79915 8.77774 26349 ft 366 kts
2026-04-26 13:29 41.83307 8.78152 26013 ft 365 kts
2026-04-26 13:29 41.85825 8.78435 25771 ft 363 kts
2026-04-26 13:30 41.88338 8.78714 25524 ft 362 kts
2026-04-26 13:30 41.90843 8.78991 25282 ft 360 kts
2026-04-26 13:30 41.93333 8.79267 25044 ft 358 kts
2026-04-26 13:30 41.95815 8.79543 24805 ft 358 kts
2026-04-26 13:31 41.98294 8.79820 24570 ft 357 kts
2026-04-26 13:31 42.00796 8.80098 24332 ft 355 kts
2026-04-26 13:31 42.03261 8.80372 24101 ft 355 kts
2026-04-26 13:31 42.05717 8.80649 23872 ft 354 kts
2026-04-26 13:32 42.08167 8.80928 23628 ft 352 kts
2026-04-26 13:32 42.10608 8.81202 23354 ft 352 kts
2026-04-26 13:32 42.13044 8.81474 23082 ft 351 kts
2026-04-26 13:32 42.15466 8.81744 22810 ft 349 kts
2026-04-26 13:33 42.17882 8.82014 22546 ft 348 kts
2026-04-26 13:33 42.20291 8.82290 22275 ft 345 kts
2026-04-26 13:33 42.22671 8.82564 21859 ft 342 kts
2026-04-26 13:33 42.25039 8.82830 21412 ft 341 kts
2026-04-26 13:34 42.27405 8.82978 20915 ft 341 kts
2026-04-26 13:34 42.29794 8.83002 20250 ft 346 kts 358°
2026-04-26 13:34 42.32230 8.82961 19530 ft 354 kts 358°
2026-04-26 13:34 42.33911 8.82922 19044 ft 360 kts 358°
2026-04-26 13:35 42.37264 8.82854 18068 ft 366 kts 359°
2026-04-26 13:35 42.39772 8.82822 17228 ft 353 kts 359°
2026-04-26 13:35 42.42175 8.82808 16415 ft 339 kts 360°
2026-04-26 13:35 42.44523 8.82812 15648 ft 327 kts 360°
2026-04-26 13:36 42.46763 8.82834 14936 ft 318 kts
2026-04-26 13:36 42.48956 8.82947 14246 ft 315 kts
2026-04-26 13:36 42.51003 8.83957 13494 ft 315 kts 28°
2026-04-26 13:36 42.52865 8.85529 12710 ft 315 kts 34°
2026-04-26 13:37 42.54685 8.87175 11954 ft 315 kts 34°
2026-04-26 13:37 42.56502 8.88821 11208 ft 314 kts 34°
2026-04-26 13:37 42.58352 8.90378 10483 ft 312 kts 28°
2026-04-26 13:37 42.60292 8.91665 9746 ft 310 kts 24°
2026-04-26 13:38 42.62269 8.92797 9156 ft 302 kts 22°
2026-04-26 13:38 42.64176 8.93836 8693 ft 292 kts 22°
2026-04-26 13:38 42.66042 8.94863 8190 ft 287 kts 22°
2026-04-26 13:38 42.67886 8.95904 7706 ft 288 kts 22°
2026-04-26 13:39 42.69736 8.96973 7212 ft 290 kts 22°
2026-04-26 13:39 42.71606 8.98010 6724 ft 291 kts 16°
2026-04-26 13:39 42.73593 8.98489 6227 ft 291 kts
2026-04-26 13:39 42.75618 8.98478 5730 ft 291 kts 358°
2026-04-26 13:40 42.77639 8.98464 5275 ft 290 kts 359°
2026-04-26 13:40 42.79622 8.98462 5069 ft 279 kts 359°
2026-04-26 13:40 42.81540 8.98461 5004 ft 274 kts 359°
2026-04-26 13:40 42.83462 8.98459 4787 ft 271 kts 359°
2026-04-26 13:41 42.85343 8.98395 4352 ft 270 kts 350°
2026-04-26 13:41 42.87062 8.97542 4120 ft 258 kts 326°
2026-04-26 13:41 42.88344 8.95946 3927 ft 245 kts 303°
2026-04-26 13:41 42.89068 8.93895 3605 ft 239 kts 282°
2026-04-26 13:42 42.89212 8.91665 3245 ft 235 kts 266°
2026-04-26 13:42 42.89164 8.89481 3092 ft 226 kts 266°
2026-04-26 13:42 42.89125 8.87382 3007 ft 218 kts 266°
2026-04-26 13:42 42.89087 8.85332 3013 ft 216 kts 266°
2026-04-26 13:43 42.88976 8.83304 3013 ft 213 kts 255°
2026-04-26 13:43 42.88388 8.81468 3015 ft 214 kts 233°
2026-04-26 13:43 42.87333 8.80053 3015 ft 214 kts 212°
2026-04-26 13:43 42.85962 8.79285 3016 ft 215 kts 190°
2026-04-26 13:44 42.84470 8.79189 3010 ft 215 kts 180°
2026-04-26 13:44 42.82973 8.79198 3012 ft 215 kts 180°
2026-04-26 13:44 42.81503 8.79200 3010 ft 208 kts 180°
2026-04-26 13:44 42.80062 8.79201 3010 ft 206 kts 180°
2026-04-26 13:45 42.78615 8.79200 3013 ft 206 kts 180°
2026-04-26 13:45 42.77200 8.79200 3013 ft 206 kts 180°
2026-04-26 13:45 42.75750 8.79204 3009 ft 206 kts 180°
2026-04-26 13:45 42.74320 8.79207 3010 ft 205 kts 180°
2026-04-26 13:46 42.72891 8.79204 3010 ft 205 kts 180°
2026-04-26 13:46 42.71466 8.79200 3010 ft 205 kts 180°
2026-04-26 13:46 42.70038 8.79193 3010 ft 205 kts 180°
2026-04-26 13:46 42.68611 8.79183 3013 ft 205 kts 180°
2026-04-26 13:47 42.67175 8.79178 3006 ft 207 kts 179°
2026-04-26 13:47 42.65731 8.79192 3030 ft 208 kts 179°
2026-04-26 13:47 42.64285 8.79211 2983 ft 209 kts 179°
2026-04-26 13:47 42.62817 8.79234 2845 ft 211 kts 179°
2026-04-26 13:48 42.61361 8.79248 2552 ft 209 kts 179°
2026-04-26 13:48 42.59888 8.79220 1865 ft 214 kts 181°
2026-04-26 13:48 42.58403 8.79183 1210 ft 210 kts 179°
2026-04-26 13:48 42.56973 8.79227 647 ft 201 kts 177°
2026-04-26 13:49 42.55643 8.79274 420 ft 180 kts 180°
2026-04-26 13:49 42.54471 8.79279 219 ft 160 kts 180°
2026-04-26 13:49 42.53446 8.79298 161 ft 118 kts 179°
2026-04-26 13:49 42.52930 8.79299 198 ft 30 kts 180°
2026-04-26 13:50 42.52867 8.79299 206 ft 13 kts 180°
2026-04-26 13:50 42.52768 8.79300 213 ft 12 kts 179°
2026-04-26 13:50 42.52709 8.79301 213 ft 6 kts 179°
2026-04-26 13:50 42.52628 8.79302 223 ft 17 kts 179°
2026-04-26 13:51 42.52506 8.79300 227 ft 15 kts 181°
2026-04-26 13:51 42.52441 8.79250 230 ft 10 kts 247°
2026-04-26 13:51 42.52436 8.79165 230 ft 9 kts 289°
2026-04-26 13:51 42.52468 8.79092 228 ft 0 kts 304°